AMAZONAS 3

Last updated on Thu Nov 21 2024 00:02:42 GMT+0000 (Coordinated Universal Time)

1 39078U 13006A 24325.28315867 -.00000281 00000+0 00000+0 0 9993 2 39078 0.0294 174.4698 0004891 59.9042 226.3830 1.00272091 39169
UTC large
Height (km)
Speed (km/s)
/
Latitude / Longitude
Inclination (degrees)
Orbital Period (minutes)
Azimuth
Elevation
Range (km)
Doppler Factor

Next 0 passes for location: London (51.5072 / 0.1276)

Sorry there are no passes over London.